| time (UTC) | temp F | wind direction | speed MPH | gust MPH | rain 1hr in | rain 24hr in | rain mn in | humidity % | barometer mb |
| 20260901024003 | 61 | 259 | 4.0 | 7.0 | 0.00 | 0.01 | 0.00 | 88 | 1017.3 |
| 20260901023003 | 61 | 258 | 4.0 | 6.0 | 0.00 | 0.01 | 0.00 | 88 | 1017.3 |
| 20260901022003 | 61 | 266 | 5.0 | 7.0 | 0.00 | 0.01 | 0.00 | 88 | 1017.2 |
| 20260901021004 | 60 | 262 | 4.0 | 6.0 | 0.00 | 0.01 | 0.00 | 88 | 1017.1 |
| 20260901020024 | 60 | 258 | 3.0 | 6.0 | 0.00 | 0.01 | 0.00 | 88 | 1016.9 |
| 20260901015003 | 61 | 256 | 3.0 | 6.0 | 0.00 | 0.01 | 0.00 | 88 | 1016.9 |
| 20260901014002 | 61 | 267 | 4.0 | 6.0 | 0.00 | 0.01 | 0.00 | 87 | 1016.9 |
| 20260901013003 | 61 | 267 | 5.0 | 7.0 | 0.00 | 0.01 | 0.00 | 87 | 1017.1 |
| 20260901012004 | 61 | 263 | 4.0 | 6.0 | 0.00 | 0.01 | 0.00 | 87 | 1017.0 |
| 20260901010003 | 61 | 259 | 4.0 | 7.0 | 0.00 | 0.01 | 0.00 | 86 | 1017.0 |
| 20260901005003 | 61 | 258 | 4.0 | 7.0 | 0.00 | 0.01 | 0.00 | 86 | 1016.9 |
| 20260901004003 | 61 | 252 | 3.0 | 6.0 | 0.00 | 0.01 | 0.00 | 86 | 1017.1 |
| 20260901003002 | 61 | 260 | 3.0 | 6.0 | 0.00 | 0.01 | 0.00 | 85 | 1017.0 |
| 20260901002003 | 61 | 262 | 5.0 | 7.0 | 0.00 | 0.01 | 0.00 | 85 | 1016.8 |
| 20260901001023 | 61 | 258 | 4.0 | 7.0 | 0.00 | 0.01 | 0.00 | 84 | 1016.8 |
| 20260901000024 | 62 | 265 | 5.0 | 8.0 | 0.00 | 0.01 | 0.00 | 84 | 1016.8 |
| 20260831235003 | 62 | 270 | 8.0 | 9.0 | 0.00 | 0.01 | 0.00 | 83 | 1016.8 |
| 20260831234004 | 62 | 267 | 7.0 | 10.0 | 0.00 | 0.01 | 0.00 | 82 | 1017.0 |
| 20260831233003 | 62 | 268 | 8.0 | 9.0 | 0.00 | 0.01 | 0.00 | 81 | 1016.9 |
| 20260831232002 | 62 | 263 | 5.0 | 8.0 | 0.00 | 0.01 | 0.00 | 81 | 1016.8 |
| 20260831231024 | 63 | 265 | 4.0 | 7.0 | 0.00 | 0.01 | 0.00 | 80 | 1016.7 |
| 20260831230024 | 64 | 251 | 3.0 | 7.0 | 0.00 | 0.01 | 0.00 | 80 | 1016.8 |
| 20260831225024 | 64 | 259 | 3.0 | 7.0 | 0.00 | 0.01 | 0.00 | 80 | 1016.8 |
| 20260831224002 | 65 | 242 | 3.0 | 7.0 | 0.00 | 0.01 | 0.00 | 80 | 1016.7 |
| 20260831223003 | 65 | 246 | 3.0 | 8.0 | 0.00 | 0.01 | 0.00 | 79 | 1016.7 |
| 20260831222024 | 65 | 239 | 3.0 | 8.0 | 0.00 | 0.01 | 0.00 | 79 | 1017.0 |
| 20260831221002 | 66 | 227 | 5.0 | 11.0 | 0.00 | 0.01 | 0.00 | 79 | 1017.0 |
| 20260831220003 | 66 | 223 | 8.0 | 11.0 | 0.00 | 0.01 | 0.00 | 78 | 1017.0 |
| 20260831215002 | 66 | 223 | 7.0 | 11.0 | 0.00 | 0.01 | 0.00 | 78 | 1017.0 |
| 20260831214002 | 66 | 217 | 8.0 | 15.0 | 0.00 | 0.01 | 0.00 | 77 | 1017.0 |
| 20260831213003 | 66 | 219 | 11.0 | 16.0 | 0.00 | 0.01 | 0.00 | 77 | 1016.9 |
| 20260831212003 | 67 | 221 | 11.0 | 15.0 | 0.00 | 0.01 | 0.00 | 77 | 1017.0 |
| 20260831211003 | 67 | 216 | 10.0 | 16.0 | 0.00 | 0.01 | 0.00 | 77 | 1017.2 |
| 20260831210003 | 67 | 227 | 9.0 | 15.0 | 0.00 | 0.01 | 0.00 | 77 | 1017.0 |
| 20260831205002 | 67 | 214 | 11.0 | 15.0 | 0.00 | 0.01 | 0.00 | 77 | 1017.1 |
| 20260831204003 | 67 | 210 | 10.0 | 14.0 | 0.00 | 0.01 | 0.00 | 76 | 1016.9 |
| 20260831203002 | 68 | 199 | 12.0 | 14.0 | 0.00 | 0.01 | 0.00 | 74 | 1016.8 |
| 20260831202003 | 68 | 206 | 10.0 | 12.0 | 0.00 | 0.01 | 0.00 | 73 | 1016.7 |
| 20260831201002 | 68 | 201 | 10.0 | 12.0 | 0.00 | 0.01 | 0.00 | 71 | 1017.0 |
| 20260831200003 | 68 | 197 | 11.0 | 13.0 | 0.00 | 0.01 | 0.00 | 70 | 1017.0 |
| 20260831194003 | 68 | 203 | 11.0 | 13.0 | 0.00 | 0.01 | 0.00 | 73 | 1017.1 |
| 20260831193003 | 67 | 194 | 10.0 | 12.0 | 0.00 | 0.01 | 0.00 | 75 | 1017.4 |
| 20260831192002 | 67 | 185 | 9.0 | 11.0 | 0.00 | 0.01 | 0.00 | 76 | 1017.3 |
| 20260831191003 | 69 | 190 | 9.0 | 11.0 | 0.00 | 0.01 | 0.00 | 74 | 1017.3 |
| 20260831190003 | 69 | 198 | 10.0 | 12.0 | 0.00 | 0.01 | 0.00 | 73 | 1017.4 |
| 20260831185002 | 68 | 200 | 10.0 | 13.0 | 0.00 | 0.01 | 0.00 | 73 | 1017.4 |
| 20260831184003 | 69 | 212 | 6.0 | 14.0 | 0.00 | 0.01 | 0.00 | 73 | 1017.4 |
| 20260831183002 | 68 | 204 | 12.0 | 14.0 | 0.00 | 0.01 | 0.00 | 71 | 1017.5 |
| 20260831182003 | 68 | 217 | 7.0 | 15.0 | 0.00 | 0.01 | 0.00 | 71 | 1017.6 |
| 20260831181003 | 68 | 209 | 11.0 | 16.0 | 0.00 | 0.01 | 0.00 | 72 | 1017.7 |
| 20260831180002 | 68 | 209 | 12.0 | 18.0 | 0.00 | 0.01 | 0.00 | 72 | 1017.8 |
| 20260831175024 | 69 | 207 | 15.0 | 17.0 | 0.00 | 0.01 | 0.00 | 70 | 1018.0 |
| 20260831174003 | 71 | 220 | 8.0 | 11.0 | 0.00 | 0.01 | 0.00 | 66 | 1017.8 |
| 20260831173002 | 71 | 213 | 5.0 | 11.0 | 0.00 | 0.01 | 0.00 | 68 | 1017.9 |
| 20260831172024 | 71 | 200 | 8.0 | 11.0 | 0.00 | 0.01 | 0.00 | 64 | 1017.7 |
| 20260831171045 | 71 | 198 | 0.0 | 7.0 | 0.00 | 0.01 | 0.00 | 64 | 1017.8 |
| 20260831170002 | 72 | 214 | 6.0 | 10.0 | 0.00 | 0.01 | 0.00 | 56 | 1018.0 |
| 20260831165003 | 72 | 226 | 5.0 | 12.0 | 0.00 | 0.01 | 0.00 | 55 | 1018.2 |
| 20260831164003 | 72 | 289 | 4.0 | 11.0 | 0.00 | 0.01 | 0.00 | 51 | 1018.1 |
| 20260831163003 | 71 | 323 | 5.0 | 10.0 | 0.00 | 0.01 | 0.00 | 51 | 1018.2 |
| 20260831162003 | 71 | 281 | 7.0 | 12.0 | 0.00 | 0.01 | 0.00 | 53 | 1018.4 |
| 20260831161025 | 71 | 296 | 8.0 | 13.0 | 0.00 | 0.01 | 0.00 | 54 | 1018.4 |
| 20260831160002 | 70 | 294 | 8.0 | 15.0 | 0.00 | 0.01 | 0.00 | 56 | 1018.5 |
| 20260831155003 | 70 | 294 | 10.0 | 14.0 | 0.00 | 0.01 | 0.00 | 57 | 1018.5 |
| 20260831154003 | 69 | 324 | 12.0 | 14.0 | 0.00 | 0.01 | 0.00 | 56 | 1018.5 |
| 20260831153003 | 69 | 296 | 7.0 | 13.0 | 0.00 | 0.01 | 0.00 | 59 | 1018.6 |
| 20260831152003 | 68 | 352 | 5.0 | 10.0 | 0.00 | 0.01 | 0.00 | 63 | 1018.5 |
| 20260831151002 | 67 | 344 | 8.0 | 11.0 | 0.00 | 0.01 | 0.00 | 65 | 1018.8 |
| 20260831150003 | 67 | 302 | 5.0 | 11.0 | 0.00 | 0.01 | 0.00 | 68 | 1019.0 |
| 20260831145003 | 66 | 310 | 7.0 | 14.0 | 0.00 | 0.01 | 0.00 | 69 | 1018.9 |
| 20260831144002 | 66 | 322 | 10.0 | 15.0 | 0.00 | 0.01 | 0.00 | 70 | 1018.9 |
| 20260831143003 | 65 | 313 | 9.0 | 14.0 | 0.00 | 0.01 | 0.00 | 71 | 1019.0 |
| 20260831142003 | 65 | 327 | 8.0 | 15.0 | 0.00 | 0.01 | 0.00 | 71 | 1019.1 |
| 20260831141024 | 65 | 330 | 11.0 | 16.0 | 0.00 | 0.01 | 0.00 | 71 | 1019.2 |
| 20260831140003 | 64 | 316 | 11.0 | 15.0 | 0.00 | 0.01 | 0.00 | 72 | 1019.0 |
| 20260831135003 | 64 | 299 | 9.0 | 15.0 | 0.00 | 0.01 | 0.00 | 74 | 1019.0 |
| 20260831134003 | 63 | 310 | 10.0 | 16.0 | 0.00 | 0.01 | 0.00 | 76 | 1018.7 |
| 20260831133003 | 62 | 305 | 8.0 | 13.0 | 0.00 | 0.01 | 0.00 | 78 | 1018.6 |
| 20260831132002 | 62 | 302 | 8.0 | 13.0 | 0.00 | 0.01 | 0.00 | 79 | 1018.5 |
| 20260831130023 | 61 | 324 | 8.0 | 15.0 | 0.00 | 0.01 | 0.00 | 82 | 1018.2 |
| 20260831125003 | 60 | 327 | 9.0 | 13.0 | 0.00 | 0.01 | 0.00 | 84 | 1018.1 |
| 20260831124003 | 60 | 329 | 8.0 | 14.0 | 0.00 | 0.01 | 0.00 | 85 | 1018.0 |
| 20260831123003 | 59 | 319 | 8.0 | 16.0 | 0.00 | 0.01 | 0.00 | 86 | 1018.1 |
| 20260831122003 | 59 | 319 | 7.0 | 13.0 | 0.00 | 0.01 | 0.00 | 88 | 1018.3 |
| 20260831121002 | 58 | 319 | 7.0 | 13.0 | 0.00 | 0.01 | 0.00 | 89 | 1018.3 |
| 20260831120003 | 58 | 325 | 9.0 | 14.0 | 0.00 | 0.01 | 0.00 | 90 | 1018.3 |
| 20260831115024 | 58 | 320 | 6.0 | 11.0 | 0.00 | 0.01 | 0.00 | 90 | 1018.5 |
| 20260831114002 | 57 | 302 | 8.0 | 12.0 | 0.00 | 0.01 | 0.00 | 91 | 1018.5 |
| 20260831113045 | 57 | 301 | 9.0 | 13.0 | 0.00 | 0.01 | 0.00 | 91 | 1018.3 |
| 20260831112002 | 57 | 302 | 7.0 | 10.0 | 0.00 | 0.01 | 0.00 | 91 | 1018.4 |
| 20260831111003 | 57 | 295 | 9.0 | 12.0 | 0.00 | 0.01 | 0.00 | 91 | 1018.2 |
| 20260831110002 | 56 | 298 | 9.0 | 13.0 | 0.00 | 0.01 | 0.00 | 92 | 1018.0 |
| 20260831105024 | 56 | 296 | 8.0 | 11.0 | 0.00 | 0.01 | 0.00 | 92 | 1018.0 |
| 20260831104003 | 56 | 299 | 9.0 | 12.0 | 0.00 | 0.01 | 0.00 | 92 | 1018.0 |
| 20260831103003 | 56 | 294 | 8.0 | 12.0 | 0.00 | 0.01 | 0.00 | 91 | 1017.7 |
| 20260831102003 | 56 | 295 | 8.0 | 11.0 | 0.00 | 0.01 | 0.00 | 91 | 1017.7 |
| 20260831101024 | 56 | 306 | 6.0 | 11.0 | 0.00 | 0.01 | 0.00 | 91 | 1017.6 |
| 20260831100002 | 56 | 296 | 7.0 | 11.0 | 0.00 | 0.01 | 0.00 | 91 | 1017.5 |
| 20260831095003 | 56 | 293 | 7.0 | 12.0 | 0.00 | 0.01 | 0.00 | 92 | 1017.4 |
| 20260831094003 | 56 | 288 | 9.0 | 11.0 | 0.00 | 0.01 | 0.00 | 91 | 1017.3 |
| 20260831093003 | 56 | 295 | 8.0 | 9.0 | 0.00 | 0.01 | 0.00 | 91 | 1017.0 |
| 20260831092003 | 56 | 301 | 8.0 | 11.0 | 0.00 | 0.01 | 0.00 | 91 | 1017.0 |
| 20260831091002 | 56 | 299 | 6.0 | 11.0 | 0.00 | 0.01 | 0.00 | 91 | 1016.8 |
| 20260831090003 | 56 | 310 | 8.0 | 12.0 | 0.00 | 0.01 | 0.00 | 91 | 1016.5 |
| 20260831085002 | 56 | 328 | 6.0 | 11.0 | 0.00 | 0.01 | 0.00 | 91 | 1016.3 |
| 20260831084003 | 56 | 325 | 7.0 | 11.0 | 0.00 | 0.01 | 0.00 | 91 | 1016.1 |
| 20260831083003 | 57 | 321 | 7.0 | 11.0 | 0.00 | 0.01 | 0.00 | 91 | 1016.1 |
| 20260831082003 | 57 | 318 | 5.0 | 12.0 | 0.00 | 0.01 | 0.00 | 90 | 1016.1 |
| 20260831081003 | 57 | 338 | 6.0 | 10.0 | 0.00 | 0.01 | 0.00 | 90 | 1016.0 |
| 20260831080002 | 57 | 337 | 5.0 | 11.0 | 0.00 | 0.01 | 0.00 | 91 | 1016.2 |
| 20260831075003 | 58 | 316 | 5.0 | 10.0 | 0.00 | 0.01 | 0.00 | 90 | 1016.1 |
| 20260831074003 | 58 | 320 | 6.0 | 11.0 | 0.00 | 0.01 | 0.00 | 90 | 1016.4 |
| 20260831073002 | 58 | 334 | 7.0 | 11.0 | 0.00 | 0.01 | 0.00 | 90 | 1016.2 |
| 20260831072003 | 58 | 335 | 7.0 | 14.0 | 0.00 | 0.01 | 0.00 | 90 | 1016.3 |
| 20260831071003 | 58 | 344 | 8.0 | 14.0 | 0.00 | 0.01 | 0.00 | 90 | 1016.2 |
| 20260831070023 | 58 | 331 | 10.0 | 15.0 | 0.00 | 0.01 | 0.00 | 90 | 1016.1 |
| 20260831065003 | 58 | 325 | 8.0 | 14.0 | 0.00 | 0.01 | 0.00 | 90 | 1015.9 |
| 20260831064002 | 59 | 328 | 9.0 | 14.0 | 0.00 | 0.01 | 0.00 | 91 | 1016.0 |
| 20260831063003 | 59 | 318 | 8.0 | 15.0 | 0.00 | 0.01 | 0.00 | 90 | 1015.9 |
| 20260831062003 | 59 | 336 | 6.0 | 14.0 | 0.00 | 0.01 | 0.00 | 90 | 1015.6 |
| 20260831061023 | 59 | 320 | 10.0 | 15.0 | 0.00 | 0.01 | 0.00 | 90 | 1015.6 |
| 20260831060003 | 60 | 315 | 7.0 | 13.0 | 0.00 | 0.01 | 0.00 | 90 | 1015.4 |
| 20260831055003 | 60 | 316 | 6.0 | 10.0 | 0.00 | 0.01 | 0.00 | 90 | 1015.3 |
| 20260831054003 | 60 | 314 | 7.0 | 14.0 | 0.00 | 0.01 | 0.00 | 90 | 1015.3 |
| 20260831053003 | 60 | 311 | 9.0 | 13.0 | 0.00 | 0.01 | 0.00 | 90 | 1015.2 |
| 20260831052002 | 60 | 318 | 7.0 | 13.0 | 0.00 | 0.01 | 0.00 | 91 | 1015.3 |
| 20260831051003 | 60 | 311 | 7.0 | 10.0 | 0.00 | 0.01 | 0.00 | 91 | 1015.2 |
| 20260831050003 | 60 | 321 | 7.0 | 11.0 | 0.00 | 0.01 | 0.00 | 91 | 1015.0 |
| 20260831045002 | 60 | 320 | 5.0 | 12.0 | 0.00 | 0.01 | 0.00 | 91 | 1015.0 |
| 20260831044003 | 60 | 315 | 7.0 | 11.0 | 0.00 | 0.01 | 0.00 | 91 | 1014.9 |
| 20260831043002 | 60 | 291 | 7.0 | 11.0 | 0.00 | 0.01 | 0.00 | 90 | 1014.8 |
| 20260831042024 | 60 | 303 | 6.0 | 9.0 | 0.00 | 0.01 | 0.00 | 90 | 1014.9 |
| 20260831041003 | 61 | 297 | 6.0 | 11.0 | 0.00 | 0.01 | 0.00 | 90 | 1014.8 |
| 20260831040003 | 61 | 313 | 5.0 | 9.0 | 0.01 | 0.01 | 0.01 | 90 | 1014.8 |
| 20260831035003 | 61 | 316 | 5.0 | 9.0 | 0.01 | 0.01 | 0.01 | 90 | 1014.7 |
| 20260831034003 | 61 | 315 | 3.0 | 8.0 | 0.01 | 0.01 | 0.01 | 89 | 1014.5 |
| 20260831033024 | 61 | 331 | 4.0 | 8.0 | 0.00 | 0.00 | 0.00 | 89 | 1014.5 |
| 20260831032003 | 61 | 321 | 5.0 | 9.0 | 0.00 | 0.00 | 0.00 | 88 | 1014.5 |
| 20260831031003 | 61 | 322 | 3.0 | 7.0 | 0.00 | 0.00 | 0.00 | 88 | 1014.5 |
| 20260831030003 | 62 | 351 | 5.0 | 11.0 | 0.00 | 0.00 | 0.00 | 87 | 1014.7 |